Juneau, AK

4:17 AM AKDT on August 28, 2016 (GMT -0800)
Juneau International

Weather History for PAJN - November, 2011

Change the Weather History Date:

Monday, November 14, 2011

  Actual Average Record
Temperature  
Mean Temperature 32 °F 33 °F  
Max Temperature 34 °F 38 °F 55 °F (1976)
Min Temperature 30 °F 29 °F 7 °F (1955)
Degree Days  
Heating Degree Days 33 32  
Month to date heating degree days 431 419  
Since 1 July heating degree days 2239 2104  
Moisture  
Dew Point 30 °F    
Average Humidity 93    
Maximum Humidity 100    
Minimum Humidity 85    
Precipitation  
Precipitation 0.59 in 0.20 in 1.56 in (1974)
Month to date precipitation 4.75 2.83  
Year to date precipitation 56.28 53.27  
Snow  
Snow 11.60 in 0.40 in 11.60 in (2011)
Month to date snowfall 22.1 4.4  
Since 1 July snowfall 22.1 5.2  
Since 1 September snowfall 22.1 5.2  
Snow Depth 9.00 in    
Sea Level Pressure  
Sea Level Pressure 29.62 in    
Wind  
Wind Speed 10 mph (East)    
Max Wind Speed 23 mph    
Max Gust Speed 30 mph    
Visibility 4 miles    
Events Fog , Snow    
T = Trace of Precipitation, MM = Missing Value Source: NWS Daily Summary

Daily Weather History Graph

Daily Weather History Graph

Search for Another Location

Airport or City:

Trip Planner

Search our weather history database for the weather conditions in past years. The results will help you decide how hot, cold, wet, or windy it might be!

Date:

Astronomy

Nov. 14, 2011 Rise Set
Actual Time 7:44 AM AKST 3:40 PM AKST
Civil Twilight 6:58 AM AKST 4:26 PM AKST
Nautical Twilight 6:09 AM AKST 5:14 PM AKST
Astronomical Twilight 5:23 AM AKST 6:01 PM AKST
Moon 6:37 PM AKST (11/14) 11:28 AM AKST (11/14)
Length of Visible Light 9h 27m
Length of Day
7h 56m
Waning Gibbous, 85% of the Moon is Illuminated
Nov 14
Waning Gibbous
Nov 18
Last Quarter
Nov 24
New
Dec 2
First Quarter
Dec 10
Full

Hourly Weather History & Observations

Time (AKST) Temp. Windchill Dew Point Humidity Pressure Visibility Wind Dir Wind Speed Gust Speed Precip Events Conditions
12:53 AM 30.9 °F 19.8 °F 30.0 °F 96% 29.50 in 1.2 mi East 16.1 mph 24.2 mph 0.00 in Snow Light Snow
1:35 AM 30.2 °F 18.1 °F 30.2 °F 100% 29.51 in 0.8 mi ESE 18.4 mph - 0.02 in Snow Light Snow
1:53 AM 30.9 °F 19.8 °F 30.9 °F 100% 29.51 in 0.8 mi ESE 16.1 mph - 0.03 in Snow Light Snow
2:53 AM 30.9 °F 22.2 °F 30.9 °F 100% 29.52 in 0.5 mi East 10.4 mph - 0.14 in Fog , Snow Snow
3:20 AM 30.2 °F 20.8 °F 30.2 °F 100% 29.52 in 0.5 mi East 11.5 mph - N/A Fog , Snow Snow
3:53 AM 30.9 °F 22.8 °F 30.9 °F 100% 29.53 in 0.8 mi ENE 9.2 mph - 0.14 in Snow Light Snow
4:09 AM 30.2 °F 22.6 °F 30.2 °F 100% 29.54 in 1.0 mi East 8.1 mph - 0.01 in Snow Light Snow
4:25 AM 32.0 °F 22.5 °F 30.2 °F 93% 29.54 in 3.0 mi East 12.7 mph 18.4 mph 0.01 in Snow Light Snow
4:53 AM 33.1 °F 24.9 °F 30.0 °F 89% 29.55 in 10.0 mi East 10.4 mph - 0.02 in Snow Light Snow
5:53 AM 33.1 °F 24.9 °F 30.0 °F 89% 29.56 in 10.0 mi East 10.4 mph - 0.00 in Snow Light Snow
6:29 AM 32.0 °F 24.2 °F 28.4 °F 87% 29.56 in 10.0 mi ESE 9.2 mph - 0.00 in Snow Light Snow
6:53 AM 32.0 °F 23.6 °F 28.9 °F 88% 29.57 in 10.0 mi East 10.4 mph - 0.00 in   Overcast
7:53 AM 32.0 °F 21.6 °F 28.9 °F 88% 29.57 in 10.0 mi ESE 15.0 mph - 0.00 in   Overcast
8:53 AM 32.0 °F 21.2 °F 28.0 °F 85% 29.58 in 10.0 mi ESE 16.1 mph - 0.00 in   Overcast
9:26 AM 32.0 °F 22.1 °F 28.4 °F 87% 29.59 in 2.0 mi ESE 13.8 mph - 0.00 in Snow Light Snow
9:34 AM 32.0 °F 22.5 °F 28.4 °F 87% 29.60 in 1.0 mi ESE 12.7 mph - 0.00 in Snow Light Snow
9:44 AM 30.2 °F 23.4 °F 30.2 °F 100% 29.61 in 0.5 mi SE 6.9 mph - 0.00 in Snow Light Snow
9:53 AM 30.9 °F 25.2 °F 30.0 °F 96% 29.61 in 0.5 mi East 5.8 mph - 0.01 in Fog , Snow Snow
10:53 AM 30.9 °F 22.8 °F 30.9 °F 100% 29.62 in 1.0 mi ENE 9.2 mph - 0.10 in Snow Light Snow
11:27 AM 30.2 °F 22.6 °F 30.2 °F 100% 29.63 in 1.0 mi ENE 8.1 mph - 0.03 in Snow Light Snow
11:37 AM 30.2 °F 22.6 °F 30.2 °F 100% 29.63 in 4.0 mi East 8.1 mph - 0.03 in Snow Light Snow
11:53 AM 30.9 °F 21.2 °F 30.0 °F 96% 29.63 in 2.0 mi ESE 12.7 mph - 0.03 in Snow Light Snow
12:04 PM 30.2 °F 22.6 °F 30.2 °F 100% 29.63 in 0.8 mi ESE 8.1 mph - 0.01 in Snow Light Snow
12:21 PM 30.2 °F 23.4 °F 30.2 °F 100% 29.63 in 1.0 mi ESE 6.9 mph - 0.03 in Snow Light Snow
12:32 PM 32.0 °F 25.6 °F 32.0 °F 100% 29.64 in 0.8 mi East 6.9 mph - 0.03 in Snow Light Snow
12:42 PM 32.0 °F 24.2 °F 30.2 °F 93% 29.64 in 2.0 mi East 9.2 mph - 0.05 in Snow Light Snow
12:53 PM 32.0 °F 27.5 °F 30.9 °F 96% 29.64 in 5.0 mi East 4.6 mph - 0.05 in Snow Light Snow
1:12 PM 33.8 °F 25.3 °F 30.2 °F 87% 29.65 in 9.0 mi WSW 11.5 mph 19.6 mph 0.00 in Snow Small Hail
1:33 PM 32.0 °F 24.8 °F 28.4 °F 87% 29.66 in 6.0 mi WNW 8.1 mph - 0.01 in Snow Light Snow
1:45 PM 32.0 °F 25.6 °F 30.2 °F 93% 29.66 in 8.0 mi WNW 6.9 mph - 0.01 in Snow Light Snow
1:53 PM 32.0 °F 24.8 °F 30.0 °F 92% 29.67 in 7.0 mi NW 8.1 mph - 0.01 in Snow Light Snow
2:53 PM 32.0 °F 26.4 °F 28.0 °F 85% 29.69 in 8.0 mi WNW 5.8 mph - 0.02 in   Overcast
3:53 PM 30.9 °F 27.5 °F 28.9 °F 92% 29.70 in 8.0 mi ESE 3.5 mph - 0.00 in   Overcast
4:53 PM 30.0 °F 26.5 °F 30.0 °F 100% 29.71 in 10.0 mi SE 3.5 mph - N/A   Overcast
5:53 PM 30.9 °F 22.2 °F 28.9 °F 92% 29.71 in 10.0 mi ENE 10.4 mph - 0.00 in   Overcast
6:53 PM 32.0 °F 23.6 °F 28.0 °F 85% 29.70 in 10.0 mi ENE 10.4 mph - N/A   Overcast
7:53 PM 30.9 °F 21.2 °F 28.9 °F 92% 29.70 in 5.0 mi East 12.7 mph - 0.00 in Snow Light Snow
8:29 PM 30.2 °F 20.2 °F 28.4 °F 93% 29.69 in 3.0 mi East 12.7 mph - 0.01 in Snow Light Snow
8:53 PM 30.9 °F 22.2 °F 28.9 °F 92% 29.69 in 3.0 mi East 10.4 mph - 0.01 in Snow Light Snow
9:28 PM 30.2 °F 19.8 °F 28.4 °F 93% 29.67 in 1.5 mi East 13.8 mph - 0.01 in Snow Light Snow
9:41 PM 30.2 °F 22.6 °F 28.4 °F 93% 29.67 in 1.0 mi East 8.1 mph - 0.01 in Snow Light Snow
9:53 PM 30.9 °F 23.5 °F 30.0 °F 96% 29.67 in 4.0 mi East 8.1 mph - 0.02 in Snow Light Snow
10:15 PM 30.2 °F 22.6 °F 28.4 °F 93% 29.68 in 1.5 mi East 8.1 mph - 0.00 in Snow Light Snow
10:24 PM 30.2 °F 22.6 °F 30.2 °F 100% 29.68 in 0.8 mi ESE 8.1 mph - 0.01 in Snow Light Snow
10:33 PM 30.2 °F 23.4 °F 30.2 °F 100% 29.68 in 1.8 mi East 6.9 mph - 0.01 in Snow Light Snow
10:42 PM 30.2 °F 21.9 °F 30.2 °F 100% 29.68 in 3.0 mi East 9.2 mph - 0.01 in Snow Light Snow
10:53 PM 30.9 °F 25.2 °F 30.0 °F 96% 29.68 in 5.0 mi ENE 5.8 mph - 0.01 in Snow Light Snow
11:53 PM 33.1 °F 28.7 °F 28.9 °F 85% 29.68 in 2.5 mi East 4.6 mph - 0.00 in Snow Light Snow